SCP
0 0 0 0 0 0 0 0 0 0 0 0 0 0 0 0 0 0 0 0 0 0 0 0 0 0 0 0 -0 -0 0 -0 -0 -0 -0 -0 -0 -0 -0 -0 -0 -0 -0 -0 -0 -0 -0 -0 -0
-0 -0 0 0 0 0 0 0 0 0 0 0 0 0 0 0 0 0 0 0 0 0 0 0 0 0 0 0 0 0 0 0 -0 -0 -0 -0 -0 -0 -0 -0 -0 -0 -0 -0 -0 -0 -0 -0 -0
-0 -0 0 0 0 0 0 0 0 0 0 0 0 0 0 0 -0 0 0 0 0 0 0 0 0 0 0 0 0 0 0 0 0 -0 -0 -0 -0 -0 -0 -0 -0 -0 -0 -0 -0 -0 -0 -0 -0
-0 0 0 0 0 0 0 0 0 0 0 0 0 0 0 0 0 0 0 0 0 0 0 0 0 0 0 0 0 0 -0 0 0 0 0 0 0 -0 -0 -0 -0 -0 -0 -0 -0 -0 -0 -0 -0
0 -0 0 0 0 0 0 0 -0 0 0 0 0 0 -0 0 0 0 0 0 0 0 0 0 0 0 0 0 0 0 0 0 0 0 -0 -0 -0 -0 -0 -0 -0 -0 -0 -0 -0 -0 -0 -0 -0
-0 -0 -0 0 0 0 0 0 0 0 0 0 0 -0 -0 -0 0 0 0 0 0 0 0 0 0 0 0 -0 -0 -0 -0 0 0 -0 -0 -0 -0 -0 -0 -0 -0 -0 -0 -0 -0 -0 -0 -0 0
-0 0 -0 -0 0 0 0 0 0 0 0 0 0 0 -0 0 0 0 0 0 0 0 0 0 0 0 0 0 0 0 0 0 0 0 0 0 0 -0 0 0 0 0 0 0 0 0 0 0 0
-0 0 0 -0 0 -0 0 0 0 0 0 0 0 0 0 0 0 0 0 0 0 0 0 0 0 0 0 0 0 0 0 0 0 0 0 0 -0 -0 0 0 0 0 0 0 0 0 0 0 0
0 -0 -0 -0 -0 0 0 0 0 0 0 0 0 0 0 0 0 0 0 0 0 0 0 0 0 0 0 0 0 0 0 0 0 0 -0 -0 -0 -0 0 0 0 0 0 0 0 0 0 0 0
0 0 -0 -0 -0 0 0 0 0 -0 -0 0 0 0 0 0 0 0 0 0 0 0 -0 0 0 0 0 0 0 0 0 0 0 0 0 0 0 0 0 0 -0 0 0 0 0 0 0 0 0
0 0 0 -0 -0 -0 0 -0 -0 0 0 0 0 0 0 0 0 0 -0 0 0 0 0 0 0 0 0 0 0 0 0 0 0 0 0 0 0 0 0 0 -0 0 -0 0 0 0 0 0 0
0 0 0 0 0 -0 -0 -0 -0 -0 0 0 0 0 0 0 0 0 0 0 0 0 0 0 0 0 0 0 0 0 0 0 0 0 0 0 0 0 0 0 0 0 0 0 0 0 0 0 0
0 0 -0 -0 -0 -0 0 -0 -0 -0 0 0 0 0 0 0 0 0 0 0 0 0 0 0 0 0 0 0 0 0 0 0 0 0 0 0 0 0 0 0 0 0 0 0 0 0 0 0 0
-0 -0 0 -0 0 -0 -0 -0 0 -0 0 0 0 0 0 0 0 0 0 0 0 0 0 0 0 0 0 0 0 0 0 0 0 0 0 0 0 0 0 0 0 0 0 0 0 0 0 0 0
0 0 -0 -0 0 0 -0 -0 0 0 0 0 0 0 0 0 0 0 0 0 0 0 0 0 0 0 0 0 0 0 0 0 0 0 0 0 0 0 0 0 0 0 0 0 0 0 0 0 0
-0 -0 -0 0 -0 0 0 0 0 0 0 0 0 0 0 0 0 0 0 0 0 0 0 0 0 0 0 0 0 0 0 0 0 0 0 0 0 0 0 0 0 0 0 0 0 0 0 0 0
-0 -0 -0 -0 0 0 -0 -0 0 0 0 0 0 0 0 0 0 0 0 0 0 0 0 0 0 0 0 0 0 0 0 0 0 0 0 0 0 0 0 0 0 0 0 0 0 0 0 0 0
0 0 0 0 0 0 -0 0 0 0 0 0 0 0 0 0 0 0 0 0 0 0 0 0 0 0 0 0 0 0 0 0 0 0 0 0 0 0 0 0 0 0 0 0 0 0 0 0 0
0 0 0 0 0 0 0 0 0 0 0 0 0 0 0 0 0 0 0 0 0 0 0 0 0 0 0 0 0 0 0 0 0 0 0 0 0 0 0 0 0 0 0 0 0 0 0 0 0
0 0 0 0 0 0 0 0 0 0 0 0 0 0 0 0 0 0 0 0 0 0 0 0 0 0 0 0 0 0 0 0 0 0 0 0 0 0 0 0 0 0 0 0 0 0 0 0 0
0 0 0 0 0 0 0 0 0 0 0 0 0 0 0 0 0 0 0 0 0 0 0 0 0 0 0 0 0 0 0 0 0 0 0 0 0 0 0 0 0 0 0 0 0 0 0 0 0
0 0 0 0 0 0 0 0 0 0 0 0 0 0 0 0 0 0 0 0 0 0 0 0 0 0 0 0 0 0 0 0 0 0 0 0 0 0 0 0 0 0 0 0 0 0 0 0 0
0 0 0 0 0 0 0 0 0 0 0 0 0 0 0 0 0 0 0 0 0 0 0 0 0 0 0 0 0 0 0 0 0 0 0 0 0 0 0 0 0 0 0 0 0 0 0 0 0
0 0 0 0 0 0 0 0 0 0 0 0 0 0 0 0 0 0 0 0 0 0 0 0 0 0 0 0 0 0 0 0 0 0 0 0 0 0 0 0 0 0 0 0 0 0 0 0 0
0 0 0 0 0 0 0 0 0 0 0 0 0 0 0 0 0 0 0 0 0 0 0 0 0 0 0 0 0 0 0 0 0 0 0 0 0 0 0 0 0 0 0 0 0 0 0 0 0
0 0 0 0 0 0 0 0 0 0 0 0 0 0 0 0 0 0 0 0 0 0 0 0 0 0 0 0 0 0 0 0 0 0 0 0 0 0 0 0 0 0 0 0 0 0 0 0 0
0 0 0 0 0 0 0 0 0 0 0 0 0 0 0 0 0 0 0 0 0 0 0 0 0 0 0 0 0 0 0 0 0 0 0 0 0 0 0 0 0 0 0 0 0 0 0 0 0
0 0 0 0 0 0 0 0 0 0 0 0 0 0 0 0 0 0 0 0 0 0 0 0 0 0 0 0 0 0 0 0 0 0 0 0 0 0 0 0 0 0 0 0 0 0 0 0 0
0 0 0 0 0 0 0 0 0 0 0 0 0 0 0 0 0 0 0 0 0 0 0 0 0 0 0 0 0 0 0 0 0 0 0 0 0 0 0 0 0 0 0 0 0 0 0 0 0
0 0 0 0 0 0 0 0 0 0 0 0 0 0 0 0 0 0 0 0 0 0 0 0 0 0 0 0 0 0 0 0 0 0 0 0 0 0 0 0 0 0 0 0 0 0 0 0 0
Wind_Speed_500mb
8 22 17 9 3 5 10 9 9 17 15 28 19 24 33 38 12 10 24 18 20 24 27 24 15 16 15 13 18 20 28 26 18 20 15 14 12 9 8 11 23 24 9 9 10 8 7 11 23
8 10 10 11 4 8 5 15 24 20 18 4 19 29 30 13 22 27 21 27 32 27 22 25 13 17 14 21 16 16 20 19 16 16 23 19 13 17 22 14 19 23 12 13 0 5 6 8 11
16 10 9 5 7 8 11 28 19 21 13 13 13 25 18 13 20 14 20 38 33 20 27 18 13 14 14 15 10 9 22 17 18 16 20 24 22 23 20 16 20 11 11 7 8 13 16 21 22
8 7 11 5 10 14 18 18 24 18 11 10 9 20 21 15 7 15 42 38 19 28 20 19 18 17 20 15 7 7 16 18 17 18 18 19 20 23 20 17 12 17 9 6 2 6 18 14 15
5 11 7 9 19 13 19 13 14 16 17 22 37 16 19 19 16 27 43 34 25 23 12 12 25 22 18 15 10 18 17 15 14 15 16 18 18 23 23 22 17 9 13 13 4 23 22 19 16
9 7 7 4 12 11 19 6 7 24 29 27 43 22 14 18 26 33 38 31 23 9 22 18 21 16 14 17 14 12 12 13 8 12 17 16 15 18 20 20 19 18 19 20 21 23 24 24 30
9 5 9 15 13 13 18 15 18 27 34 22 28 12 20 19 24 30 34 29 28 16 14 11 18 18 15 12 16 14 11 8 7 8 10 14 17 18 19 18 17 17 17 18 20 23 24 28 31
12 6 2 9 7 17 8 11 17 28 16 9 29 11 18 23 30 29 28 29 25 23 11 19 19 15 13 11 10 11 11 3 3 13 17 20 24 19 17 20 17 17 17 17 18 20 23 25 25
11 5 9 12 19 9 10 19 11 9 35 41 27 26 25 32 31 30 27 26 26 25 14 17 12 19 16 16 11 10 5 5 11 20 22 22 22 17 14 15 15 15 16 16 17 18 21 23 24
6 8 14 13 19 10 19 26 9 8 40 30 34 26 21 27 28 28 27 26 26 18 25 25 19 17 19 18 12 9 8 10 17 15 13 18 1 5 11 10 11 11 12 14 17 17 17 15 18
16 12 12 24 23 24 16 41 44 29 17 26 18 17 17 21 21 20 20 23 27 23 26 22 12 14 13 11 9 12 6 12 14 13 8 10 10 1 4 10 8 7 10 6 8 10 8 10 8
6 16 15 13 9 16 17 28 32 39 16 17 12 6 11 16 16 17 17 20 25 28 28 27 21 18 17 15 6 5 2 6 7 11 10 8 3 4 5 1 9 5 5 3 3 3 2 4 7
13 11 2 10 2 4 4 22 27 31 22 21 17 14 7 6 11 12 14 16 21 27 30 30 29 26 16 18 5 12 9 12 6 17 13 7 7 7 5 6 9 8 6 3 4 2 3 3 2
10 3 10 4 12 4 17 27 12 26 20 26 26 24 19 10 7 5 10 13 18 22 28 28 31 28 26 21 17 17 14 17 9 17 16 12 8 7 4 5 13 9 10 9 8 8 8 5 4
8 10 15 16 16 12 42 20 13 16 19 26 30 27 23 22 16 4 6 15 14 21 24 27 27 26 28 26 20 25 21 20 15 17 15 13 11 11 7 11 14 11 15 11 10 9 9 9 8
8 10 11 8 17 6 1 12 14 16 21 27 29 27 26 24 21 18 11 14 22 21 25 24 30 29 26 28 28 26 20 21 21 14 14 15 16 17 16 15 14 16 20 15 13 12 12 9 10
15 9 12 10 3 8 13 16 17 19 23 29 31 29 28 28 28 25 17 15 28 28 25 28 31 29 24 23 19 16 12 16 10 11 15 15 17 17 16 13 13 13 24 17 13 14 13 13 11
9 13 7 14 5 4 22 17 15 22 27 31 33 32 31 32 33 29 25 17 14 36 27 29 28 25 25 19 20 16 13 14 12 13 14 15 19 17 15 15 16 17 23 17 16 15 15 17 17
16 14 11 16 5 4 15 16 14 22 25 29 34 35 35 36 35 34 32 25 14 6 25 22 26 23 26 26 19 20 15 15 15 16 17 17 17 19 19 16 15 17 20 17 16 19 18 17 15
10 11 5 12 7 5 15 15 14 22 20 28 31 35 37 38 42 44 39 36 26 19 16 18 17 20 21 18 15 13 12 12 12 12 16 13 15 15 19 18 17 17 22 21 19 21 21 20 13
9 10 10 8 10 12 15 13 16 17 26 29 32 34 38 42 44 47 49 39 36 24 21 15 13 15 18 22 21 23 26 22 18 21 19 14 11 13 14 16 20 21 22 25 24 24 23 22 17
7 12 6 3 6 5 16 1 16 18 16 27 31 34 37 41 44 48 50 53 38 30 22 21 20 20 21 17 12 15 15 5 14 6 8 12 15 18 20 20 20 20 22 28 27 25 28 27 25
6 6 5 7 10 12 14 4 10 20 16 17 25 32 35 38 43 46 49 49 52 48 33 15 12 17 20 20 24 19 17 17 14 15 21 24 18 21 21 22 24 24 24 26 29 30 28 32 31
2 7 10 7 6 7 21 16 14 11 24 14 28 30 32 34 38 42 43 45 51 48 49 48 43 29 11 3 8 13 17 18 20 17 13 8 8 13 20 24 28 31 31 31 31 31 33 35 37
7 9 3 5 4 5 11 7 9 15 19 28 30 29 30 31 34 37 42 44 45 48 47 45 45 45 44 41 32 20 14 7 3 3 9 14 17 17 18 21 24 27 29 31 36 37 37 35 37
12 5 4 7 3 3 3 6 10 19 35 34 30 29 28 30 31 34 36 38 40 41 42 42 41 41 39 38 37 38 34 28 24 19 15 11 9 7 12 18 26 31 32 32 31 36 39 42 43
4 4 6 9 12 4 9 9 11 17 17 29 29 27 25 26 27 29 30 33 34 35 34 33 33 35 36 36 31 29 28 29 26 23 20 20 19 18 17 17 16 15 17 23 29 35 38 40 40
6 4 3 4 6 7 8 12 6 19 17 16 24 27 23 22 23 24 26 28 28 30 30 31 31 30 27 26 28 26 22 20 22 22 22 21 20 22 22 20 18 17 16 14 15 20 26 29 32
2 3 7 2 4 4 6 4 12 17 20 17 29 27 22 18 18 18 21 23 25 26 29 31 31 31 30 27 23 23 22 19 17 19 20 21 20 21 24 25 23 23 21 16 15 14 15 19 26
2 9 3 2 9 6 5 4 13 7 34 33 36 25 16 13 13 15 17 19 23 25 27 29 32 34 34 31 27 26 25 24 22 21 20 21 22 21 22 25 25 27 24 19 25 23 20 17 18
Wind_Direction_500mb
5 4 337 312 323 218 257 60 88 61 81 58 42 58 92 48 19 93 144 136 155 142 155 151 131 127 108 76 89 86 86 115 96 78 64 73 75 104 106 121 81 96 128 104 102 111 132 128 119
27 4 326 278 248 221 106 128 72 68 64 97 45 57 71 79 71 124 124 149 132 159 152 148 146 149 130 97 103 85 104 100 98 93 82 80 72 107 107 112 90 89 179 79 223 299 262 227 187
14 338 283 222 230 351 93 89 95 91 50 12 118 57 44 56 78 118 150 137 160 139 155 152 148 130 140 128 126 83 88 81 103 93 80 83 78 98 115 146 96 119 199 262 308 295 279 258 219
332 246 253 279 253 44 71 77 106 116 91 37 47 86 80 52 97 168 134 140 147 149 146 154 146 142 149 126 84 75 104 94 85 87 89 86 82 88 106 102 91 204 208 234 303 332 77 108 174
330 272 259 232 52 58 65 60 161 96 71 40 87 70 86 70 111 131 138 143 153 153 182 156 148 141 147 126 108 112 97 94 97 87 77 77 81 80 81 80 101 186 234 226 105 75 82 88 121
260 266 262 129 100 69 80 110 26 80 90 21 99 99 75 106 125 131 140 145 161 147 143 124 134 141 120 155 126 112 104 108 80 87 81 89 86 85 86 91 105 114 107 94 96 87 87 91 106
272 243 337 89 115 76 59 321 13 62 61 26 6 74 123 129 137 137 142 147 146 153 168 128 149 137 138 148 132 130 114 114 88 102 82 71 70 74 74 75 82 90 93 93 93 93 93 94 98
309 277 109 83 159 72 39 51 28 44 55 66 41 80 137 148 142 135 145 154 158 167 181 167 160 160 159 141 156 153 141 138 92 72 78 83 64 70 61 70 56 69 78 81 85 89 88 89 97
293 282 88 13 70 86 164 109 66 80 90 70 76 85 131 137 140 145 150 155 163 184 139 179 194 161 189 163 183 154 177 146 59 73 65 59 45 24 46 44 54 62 68 75 77 80 87 87 85
258 60 61 36 36 81 51 53 93 181 74 51 77 90 114 135 144 154 162 169 178 174 153 205 250 188 179 183 181 186 207 84 31 31 42 53 15 310 355 37 42 56 68 74 69 77 81 83 92
355 98 124 60 26 359 99 68 43 38 50 22 10 115 131 145 155 163 172 187 191 186 180 199 236 205 184 255 225 210 193 126 164 201 229 195 216 58 348 30 17 50 58 87 71 76 63 73 123
126 53 24 109 50 7 34 79 66 51 28 25 27 50 133 161 175 186 186 192 194 195 196 188 192 207 194 267 335 12 242 288 156 272 258 249 220 175 278 58 312 359 18 45 33 84 311 97 67
89 102 103 100 73 80 73 46 84 42 36 39 53 61 59 189 199 192 198 192 197 200 204 199 202 198 196 217 186 244 293 211 261 271 282 263 250 242 259 313 325 320 335 312 297 311 297 106 153
68 68 104 103 124 141 89 50 52 15 34 48 54 47 35 35 57 144 194 196 197 209 210 210 207 200 189 206 227 200 227 266 225 264 287 296 275 279 317 304 302 299 311 296 294 284 287 255 233
166 155 133 137 147 121 114 58 45 14 51 53 56 52 51 47 45 326 128 199 223 211 218 209 214 214 193 201 219 217 217 220 248 249 274 262 278 276 255 247 285 297 277 297 293 289 292 280 269
215 257 168 130 158 200 225 100 52 34 64 58 57 53 50 43 27 353 294 215 181 208 216 218 211 216 211 204 207 237 221 234 222 245 266 273 261 264 232 241 251 284 287 288 287 285 281 279 297
219 246 162 143 334 144 194 124 70 39 62 60 56 48 43 36 26 12 350 274 214 185 208 215 211 207 227 198 213 239 221 262 255 214 257 266 272 267 270 254 269 275 286 290 285 281 285 273 257
264 217 84 115 82 97 73 100 77 56 59 58 53 46 39 35 25 14 9 354 286 200 179 214 214 211 205 225 202 233 252 245 251 257 245 260 278 284 273 270 264 255 279 288 286 285 279 283 281
337 8 34 93 30 38 107 103 92 73 62 62 56 46 39 35 26 24 28 30 53 181 175 201 207 209 202 214 207 217 239 254 259 251 248 253 252 277 287 280 270 278 284 279 281 282 278 280 289
332 303 106 81 152 232 139 123 102 94 77 66 61 52 46 38 34 30 33 49 59 95 166 178 200 202 206 219 218 226 243 269 283 284 273 268 268 268 285 294 288 275 278 287 279 276 277 274 276
225 329 17 65 167 260 156 154 143 118 103 81 65 60 51 48 42 38 37 46 58 78 98 143 164 191 203 206 211 210 218 220 231 245 264 265 267 279 289 290 289 284 280 284 284 283 283 275 259
332 5 351 92 193 259 169 192 163 142 108 79 72 62 58 51 50 47 45 41 51 61 88 114 139 154 178 201 200 247 236 313 332 297 290 287 282 271 271 278 283 281 275 280 291 282 283 280 272
98 330 344 314 286 310 197 257 117 140 127 100 82 73 64 58 55 53 51 52 51 55 59 86 148 155 166 178 198 193 202 216 225 242 253 252 254 274 273 275 282 282 282 278 275 284 278 285 283
60 259 220 255 235 252 223 176 172 189 142 121 99 81 74 67 61 58 56 59 58 59 58 59 58 67 80 153 195 214 223 223 227 237 250 252 263 286 292 288 271 265 262 269 276 274 272 270 280
225 272 236 249 198 247 12 134 116 102 111 116 109 94 81 72 65 61 58 54 59 59 57 60 63 58 55 61 68 74 81 91 33 268 254 248 241 235 240 250 262 272 276 274 268 267 271 274 273
222 349 300 297 35 138 275 188 143 96 98 104 106 102 88 76 66 63 59 57 54 55 58 55 55 59 57 56 57 53 50 52 53 50 44 30 17 318 304 285 274 270 263 257 265 277 275 271 270
80 199 347 310 279 247 145 88 84 121 126 134 119 104 90 81 71 63 60 58 52 50 49 53 52 53 54 47 43 50 52 41 32 34 33 29 21 12 1 353 345 336 308 283 267 262 268 276 278
246 343 301 233 269 260 198 122 118 167 157 141 134 116 102 88 77 68 59 52 49 48 41 39 40 42 42 45 33 28 32 35 23 11 11 9 6 3 355 353 352 345 337 328 310 297 292 287 282
235 220 234 235 263 256 324 86 352 176 161 155 132 120 111 97 85 75 67 56 46 36 32 24 21 19 22 23 19 5 4 4 360 356 356 358 353 351 345 346 343 338 337 342 318 298 282 283 283
311 341 328 235 330 324 157 217 330 111 142 151 127 124 115 110 97 81 69 54 42 32 22 16 4 3 3 3 357 347 337 337 334 334 337 336 336 338 340 336 334 330 335 331 311 313 300 291 289
Wind_Speed_850mb
8 22 17 9 3 5 10 9 9 17 15 28 19 24 33 38 12 10 24 18 20 24 27 24 15 16 15 13 18 20 28 26 18 20 15 14 12 9 8 11 23 24 9 9 10 8 7 11 23
8 10 10 11 4 8 5 15 24 20 18 4 19 29 30 13 22 27 21 27 32 27 22 25 13 17 14 21 16 16 20 19 16 16 23 19 13 17 22 14 19 23 12 13 0 5 6 8 11
16 10 9 5 7 8 11 28 19 21 13 13 13 25 18 13 20 14 20 38 33 20 27 18 13 14 14 15 10 9 22 17 18 16 20 24 22 23 20 16 20 11 11 7 8 13 16 21 22
8 7 11 5 10 14 18 18 24 18 11 10 9 20 21 15 7 15 42 38 19 28 20 19 18 17 20 15 7 7 16 18 17 18 18 19 20 23 20 17 12 17 9 6 2 6 18 14 15
5 11 7 9 19 13 19 13 14 16 17 22 37 16 19 19 16 27 43 34 25 23 12 12 25 22 18 15 10 18 17 15 14 15 16 18 18 23 23 22 17 9 13 13 4 23 22 19 16
9 7 7 4 12 11 19 6 7 24 29 27 43 22 14 18 26 33 38 31 23 9 22 18 21 16 14 17 14 12 12 13 8 12 17 16 15 18 20 20 19 18 19 20 21 23 24 24 30
9 5 9 15 13 13 18 15 18 27 34 22 28 12 20 19 24 30 34 29 28 16 14 11 18 18 15 12 16 14 11 8 7 8 10 14 17 18 19 18 17 17 17 18 20 23 24 28 31
12 6 2 9 7 17 8 11 17 28 16 9 29 11 18 23 30 29 28 29 25 23 11 19 19 15 13 11 10 11 11 3 3 13 17 20 24 19 17 20 17 17 17 17 18 20 23 25 25
11 5 9 12 19 9 10 19 11 9 35 41 27 26 25 32 31 30 27 26 26 25 14 17 12 19 16 16 11 10 5 5 11 20 22 22 22 17 14 15 15 15 16 16 17 18 21 23 24
6 8 14 13 19 10 19 26 9 8 40 30 34 26 21 27 28 28 27 26 26 18 25 25 19 17 19 18 12 9 8 10 17 15 13 18 1 5 11 10 11 11 12 14 17 17 17 15 18
16 12 12 24 23 24 16 41 44 29 17 26 18 17 17 21 21 20 20 23 27 23 26 22 12 14 13 11 9 12 6 12 14 13 8 10 10 1 4 10 8 7 10 6 8 10 8 10 8
6 16 15 13 9 16 17 28 32 39 16 17 12 6 11 16 16 17 17 20 25 28 28 27 21 18 17 15 6 5 2 6 7 11 10 8 3 4 5 1 9 5 5 3 3 3 2 4 7
13 11 2 10 2 4 4 22 27 31 22 21 17 14 7 6 11 12 14 16 21 27 30 30 29 26 16 18 5 12 9 12 6 17 13 7 7 7 5 6 9 8 6 3 4 2 3 3 2
10 3 10 4 12 4 17 27 12 26 20 26 26 24 19 10 7 5 10 13 18 22 28 28 31 28 26 21 17 17 14 17 9 17 16 12 8 7 4 5 13 9 10 9 8 8 8 5 4
8 10 15 16 16 12 42 20 13 16 19 26 30 27 23 22 16 4 6 15 14 21 24 27 27 26 28 26 20 25 21 20 15 17 15 13 11 11 7 11 14 11 15 11 10 9 9 9 8
8 10 11 8 17 6 1 12 14 16 21 27 29 27 26 24 21 18 11 14 22 21 25 24 30 29 26 28 28 26 20 21 21 14 14 15 16 17 16 15 14 16 20 15 13 12 12 9 10
15 9 12 10 3 8 13 16 17 19 23 29 31 29 28 28 28 25 17 15 28 28 25 28 31 29 24 23 19 16 12 16 10 11 15 15 17 17 16 13 13 13 24 17 13 14 13 13 11
9 13 7 14 5 4 22 17 15 22 27 31 33 32 31 32 33 29 25 17 14 36 27 29 28 25 25 19 20 16 13 14 12 13 14 15 19 17 15 15 16 17 23 17 16 15 15 17 17
16 14 11 16 5 4 15 16 14 22 25 29 34 35 35 36 35 34 32 25 14 6 25 22 26 23 26 26 19 20 15 15 15 16 17 17 17 19 19 16 15 17 20 17 16 19 18 17 15
10 11 5 12 7 5 15 15 14 22 20 28 31 35 37 38 42 44 39 36 26 19 16 18 17 20 21 18 15 13 12 12 12 12 16 13 15 15 19 18 17 17 22 21 19 21 21 20 13
9 10 10 8 10 12 15 13 16 17 26 29 32 34 38 42 44 47 49 39 36 24 21 15 13 15 18 22 21 23 26 22 18 21 19 14 11 13 14 16 20 21 22 25 24 24 23 22 17
7 12 6 3 6 5 16 1 16 18 16 27 31 34 37 41 44 48 50 53 38 30 22 21 20 20 21 17 12 15 15 5 14 6 8 12 15 18 20 20 20 20 22 28 27 25 28 27 25
6 6 5 7 10 12 14 4 10 20 16 17 25 32 35 38 43 46 49 49 52 48 33 15 12 17 20 20 24 19 17 17 14 15 21 24 18 21 21 22 24 24 24 26 29 30 28 32 31
2 7 10 7 6 7 21 16 14 11 24 14 28 30 32 34 38 42 43 45 51 48 49 48 43 29 11 3 8 13 17 18 20 17 13 8 8 13 20 24 28 31 31 31 31 31 33 35 37
7 9 3 5 4 5 11 7 9 15 19 28 30 29 30 31 34 37 42 44 45 48 47 45 45 45 44 41 32 20 14 7 3 3 9 14 17 17 18 21 24 27 29 31 36 37 37 35 37
12 5 4 7 3 3 3 6 10 19 35 34 30 29 28 30 31 34 36 38 40 41 42 42 41 41 39 38 37 38 34 28 24 19 15 11 9 7 12 18 26 31 32 32 31 36 39 42 43
4 4 6 9 12 4 9 9 11 17 17 29 29 27 25 26 27 29 30 33 34 35 34 33 33 35 36 36 31 29 28 29 26 23 20 20 19 18 17 17 16 15 17 23 29 35 38 40 40
6 4 3 4 6 7 8 12 6 19 17 16 24 27 23 22 23 24 26 28 28 30 30 31 31 30 27 26 28 26 22 20 22 22 22 21 20 22 22 20 18 17 16 14 15 20 26 29 32
2 3 7 2 4 4 6 4 12 17 20 17 29 27 22 18 18 18 21 23 25 26 29 31 31 31 30 27 23 23 22 19 17 19 20 21 20 21 24 25 23 23 21 16 15 14 15 19 26
2 9 3 2 9 6 5 4 13 7 34 33 36 25 16 13 13 15 17 19 23 25 27 29 32 34 34 31 27 26 25 24 22 21 20 21 22 21 22 25 25 27 24 19 25 23 20 17 18
Wind_Direction_850mb
5 4 337 312 323 218 257 60 88 61 81 58 42 58 92 48 19 93 144 136 155 142 155 151 131 127 108 76 89 86 86 115 96 78 64 73 75 104 106 121 81 96 128 104 102 111 132 128 119
27 4 326 278 248 221 106 128 72 68 64 97 45 57 71 79 71 124 124 149 132 159 152 148 146 149 130 97 103 85 104 100 98 93 82 80 72 107 107 112 90 89 179 79 223 299 262 227 187
14 338 283 222 230 351 93 89 95 91 50 12 118 57 44 56 78 118 150 137 160 139 155 152 148 130 140 128 126 83 88 81 103 93 80 83 78 98 115 146 96 119 199 262 308 295 279 258 219
332 246 253 279 253 44 71 77 106 116 91 37 47 86 80 52 97 168 134 140 147 149 146 154 146 142 149 126 84 75 104 94 85 87 89 86 82 88 106 102 91 204 208 234 303 332 77 108 174
330 272 259 232 52 58 65 60 161 96 71 40 87 70 86 70 111 131 138 143 153 153 182 156 148 141 147 126 108 112 97 94 97 87 77 77 81 80 81 80 101 186 234 226 105 75 82 88 121
260 266 262 129 100 69 80 110 26 80 90 21 99 99 75 106 125 131 140 145 161 147 143 124 134 141 120 155 126 112 104 108 80 87 81 89 86 85 86 91 105 114 107 94 96 87 87 91 106
272 243 337 89 115 76 59 321 13 62 61 26 6 74 123 129 137 137 142 147 146 153 168 128 149 137 138 148 132 130 114 114 88 102 82 71 70 74 74 75 82 90 93 93 93 93 93 94 98
309 277 109 83 159 72 39 51 28 44 55 66 41 80 137 148 142 135 145 154 158 167 181 167 160 160 159 141 156 153 141 138 92 72 78 83 64 70 61 70 56 69 78 81 85 89 88 89 97
293 282 88 13 70 86 164 109 66 80 90 70 76 85 131 137 140 145 150 155 163 184 139 179 194 161 189 163 183 154 177 146 59 73 65 59 45 24 46 44 54 62 68 75 77 80 87 87 85
258 60 61 36 36 81 51 53 93 181 74 51 77 90 114 135 144 154 162 169 178 174 153 205 250 188 179 183 181 186 207 84 31 31 42 53 15 310 355 37 42 56 68 74 69 77 81 83 92
355 98 124 60 26 359 99 68 43 38 50 22 10 115 131 145 155 163 172 187 191 186 180 199 236 205 184 255 225 210 193 126 164 201 229 195 216 58 348 30 17 50 58 87 71 76 63 73 123
126 53 24 109 50 7 34 79 66 51 28 25 27 50 133 161 175 186 186 192 194 195 196 188 192 207 194 267 335 12 242 288 156 272 258 249 220 175 278 58 312 359 18 45 33 84 311 97 67
89 102 103 100 73 80 73 46 84 42 36 39 53 61 59 189 199 192 198 192 197 200 204 199 202 198 196 217 186 244 293 211 261 271 282 263 250 242 259 313 325 320 335 312 297 311 297 106 153
68 68 104 103 124 141 89 50 52 15 34 48 54 47 35 35 57 144 194 196 197 209 210 210 207 200 189 206 227 200 227 266 225 264 287 296 275 279 317 304 302 299 311 296 294 284 287 255 233
166 155 133 137 147 121 114 58 45 14 51 53 56 52 51 47 45 326 128 199 223 211 218 209 214 214 193 201 219 217 217 220 248 249 274 262 278 276 255 247 285 297 277 297 293 289 292 280 269
215 257 168 130 158 200 225 100 52 34 64 58 57 53 50 43 27 353 294 215 181 208 216 218 211 216 211 204 207 237 221 234 222 245 266 273 261 264 232 241 251 284 287 288 287 285 281 279 297
219 246 162 143 334 144 194 124 70 39 62 60 56 48 43 36 26 12 350 274 214 185 208 215 211 207 227 198 213 239 221 262 255 214 257 266 272 267 270 254 269 275 286 290 285 281 285 273 257
264 217 84 115 82 97 73 100 77 56 59 58 53 46 39 35 25 14 9 354 286 200 179 214 214 211 205 225 202 233 252 245 251 257 245 260 278 284 273 270 264 255 279 288 286 285 279 283 281
337 8 34 93 30 38 107 103 92 73 62 62 56 46 39 35 26 24 28 30 53 181 175 201 207 209 202 214 207 217 239 254 259 251 248 253 252 277 287 280 270 278 284 279 281 282 278 280 289
332 303 106 81 152 232 139 123 102 94 77 66 61 52 46 38 34 30 33 49 59 95 166 178 200 202 206 219 218 226 243 269 283 284 273 268 268 268 285 294 288 275 278 287 279 276 277 274 276
225 329 17 65 167 260 156 154 143 118 103 81 65 60 51 48 42 38 37 46 58 78 98 143 164 191 203 206 211 210 218 220 231 245 264 265 267 279 289 290 289 284 280 284 284 283 283 275 259
332 5 351 92 193 259 169 192 163 142 108 79 72 62 58 51 50 47 45 41 51 61 88 114 139 154 178 201 200 247 236 313 332 297 290 287 282 271 271 278 283 281 275 280 291 282 283 280 272
98 330 344 314 286 310 197 257 117 140 127 100 82 73 64 58 55 53 51 52 51 55 59 86 148 155 166 178 198 193 202 216 225 242 253 252 254 274 273 275 282 282 282 278 275 284 278 285 283
60 259 220 255 235 252 223 176 172 189 142 121 99 81 74 67 61 58 56 59 58 59 58 59 58 67 80 153 195 214 223 223 227 237 250 252 263 286 292 288 271 265 262 269 276 274 272 270 280
225 272 236 249 198 247 12 134 116 102 111 116 109 94 81 72 65 61 58 54 59 59 57 60 63 58 55 61 68 74 81 91 33 268 254 248 241 235 240 250 262 272 276 274 268 267 271 274 273
222 349 300 297 35 138 275 188 143 96 98 104 106 102 88 76 66 63 59 57 54 55 58 55 55 59 57 56 57 53 50 52 53 50 44 30 17 318 304 285 274 270 263 257 265 277 275 271 270
80 199 347 310 279 247 145 88 84 121 126 134 119 104 90 81 71 63 60 58 52 50 49 53 52 53 54 47 43 50 52 41 32 34 33 29 21 12 1 353 345 336 308 283 267 262 268 276 278
246 343 301 233 269 260 198 122 118 167 157 141 134 116 102 88 77 68 59 52 49 48 41 39 40 42 42 45 33 28 32 35 23 11 11 9 6 3 355 353 352 345 337 328 310 297 292 287 282
235 220 234 235 263 256 324 86 352 176 161 155 132 120 111 97 85 75 67 56 46 36 32 24 21 19 22 23 19 5 4 4 360 356 356 358 353 351 345 346 343 338 337 342 318 298 282 283 283
311 341 328 235 330 324 157 217 330 111 142 151 127 124 115 110 97 81 69 54 42 32 22 16 4 3 3 3 357 347 337 337 334 334 337 336 336 338 340 336 334 330 335 331 311 313 300 291 289